Regional Weather Roundup
Issued by NWS Green Bay, WI

Home | Current Version | Previous Version | Graphics & Text | Print | Product List | Glossary Off
Versions: 1 2 3 4 5 6 7 8 9 10 11 12 13 14 15 16 17 18 19 20 21 22 23 24 25 26 27 28 29 30 31 32 33 34 35 36 37 38 39 40 41 42 43 44 45 46 47 48 49 50

000
ASUS43 KGRB 040459
RWRGRB

NORTH-CENTRAL AND NORTHEAST WISCONSIN REGIONAL WEATHER ROUNDUP
NATIONAL WEATHER SERVICE GREEN BAY WI
1200 AM CDT MON MAY 04 2015

WIZ005-009-010>012-018-019-040600-
NORTH CENTRAL WISCONSIN

CITY           SKY/WX    TMP DP  RH WIND       PRES   REMARKS
IRONWOOD       CLOUDY    52  46  82 W3        29.89R
MANITOWISH WTR NOT AVBL
ARBOR VITAE    NOT AVBL
EAGLE RIVER    NOT AVBL
LAND O LAKES   NOT AVBL
RHINELANDER    CLOUDY    55  49  80 S3        29.92R
PHILLIPS       NOT AVBL
ANTIGO         NOT AVBL
TOMAHAWK       NOT AVBL
MERRILL        NOT AVBL
$$

WIZ013-073-040600-
NORTHEAST WISCONSIN

CITY           SKY/WX    TMP DP  RH WIND       PRES   REMARKS
IRON MOUNTAIN  LGT RAIN  58  52  80 N7        29.88S
MARINETTE      CLOUDY    59  55  88 CALM      29.86F
$$

WIZ017-030-035>037-045-040600-
CENTRAL WISCONSIN

CITY           SKY/WX    TMP DP  RH WIND       PRES   REMARKS
MEDFORD        NOT AVBL
WAUSAU         CLOUDY    58  56  93 E6        29.87F
MOSINEE        NOT AVBL
MARSHFIELD     LGT RAIN  59  32  36 SE7       29.89R
WISC RAPIDS    LGT RAIN  58  55  90 SE6       29.90F
STEVENS POINT  NOT AVBL
WAUPACA        NOT AVBL
SHAWANO        NOT AVBL
CLINTONVILLE   NOT AVBL
$$

WIZ038-039-048-051-040600-
FOX VALLEY

CITY           SKY/WX    TMP DP  RH WIND       PRES   REMARKS
NWS GREEN BAY  CLOUDY    66  55  67 CALM      29.89F
APPLETON       NOT AVBL
OSHKOSH        CLOUDY    64  55  72 W5        29.87R THUNDER
FOND DU LAC    CLOUDY    64  54  69 NW17G26   29.89R
$$

WIZ022-050-052-040600-
EAST CENTRAL WISCONSIN

CITY           SKY/WX    TMP DP  RH WIND       PRES   REMARKS
STURGEON BAY   CLOUDY    57  52  82 NE5       29.92F
MANITOWOC      NOT AVBL
SHEBOYGAN      CLOUDY    63  54  72 SW8       29.85F
$$

LMZ563-521-522-541>543-040600-
LAKESHORE

STATION/POSITION TIME  TEMP    WIND        PRES    VSBY  WAVE
                       AIR SEA DIR/SP/G                  HT/PER
                 (UTC) (F)     (DEG/KT/KT) (MB)    (MI)  (FT/S)
SHEBOYGAN LKSHOR 0400   50     170/  8/  9 1012.4R
KEWAUNEE LKSHORE 0400   52      40/  9/ 11 1011.8R
NORTHPORT PIER   0400   51     210/  2/  6 1012.2R
CHAMBERS ISLAND  0400   57     240/  3/  7 1012.2S
MENOMINEE LKSHOR 0400   58     350/  3/  4 1012.6F
$$


USA.gov is the U.S. government's official web portal to all federal, state and local government web resources and services.